This is the latest recevied weather packets stored in our database for station/object PY5AL-13. If no packets are shown the sender has not sent any weather packets the latest 10 day(s).
| Time | Temp. | Humidity | Pressure | Rain* | Wind** | Luminosity | Snow |
|---|---|---|---|---|---|---|---|
| 1777668856 | 27.22° C | 62% | 1017.4 hPa | - | - | - | - |
| 1777667657 | 27.22° C | 60% | 1017.5 hPa | - | - | - | - |
| 1777666459 | 27.22° C | 63% | 1017.5 hPa | - | - | - | - |
| 1777665257 | 27.22° C | 62% | 1017.4 hPa | - | - | - | - |
| 1777664057 | 27.22° C | 63% | 1017.2 hPa | - | - | - | - |
| 1777662857 | 27.22° C | 64% | 1017.2 hPa | - | - | - | - |
| 1777661657 | 27.22° C | 63% | 1017.1 hPa | - | - | - | - |
| 1777660457 | 27.22° C | 64% | 1017.4 hPa | - | - | - | - |
| 1777659257 | 27.22° C | 64% | 1017.5 hPa | - | - | - | - |
| 1777658057 | 26.67° C | 64% | 1017.8 hPa | - | - | - | - |
| 1777656857 | 27.22° C | 64% | 1017.9 hPa | - | - | - | - |
| 1777655657 | 26.67° C | 64% | 1018.2 hPa | - | - | - | - |
| 1777654457 | 26.67° C | 65% | 1018.3 hPa | - | - | - | - |
| 1777653257 | 26.67° C | 65% | 1018.5 hPa | - | - | - | - |
| 1777652057 | 26.67° C | 65% | 1018.8 hPa | - | - | - | - |
| 1777650857 | 26.11° C | 67% | 1019.3 hPa | - | - | - | - |
| 1777649657 | 26.11° C | 66% | 1019.6 hPa | - | - | - | - |
| 1777648457 | 25.56° C | 67% | 1020 hPa | - | - | - | - |
| 1777647257 | 25° C | 68% | 1020.2 hPa | - | - | - | - |
| 1777646057 | 25° C | 72% | 1020.7 hPa | - | - | - | - |
| 1777644857 | 25° C | 68% | 1020.9 hPa | - | - | - | - |
| 1777643657 | 24.44° C | 69% | 1021.3 hPa | - | - | - | - |
| 1777642457 | 24.44° C | 71% | 1021.5 hPa | - | - | - | - |
| 1777641257 | 23.89° C | 72% | 1021.7 hPa | - | - | - | - |
| 1777640057 | 23.89° C | 72% | 1021.8 hPa | - | - | - | - |
* Rain since midnight (hover to see other rain measurements)
** Current wind speed in m/s (hover to see current wind gust speed)